Simultaneous Nadir Overpasses (SNOs) Predictions

Prediction of SNOs between AQUA and METOP-B Satellite Orbit:

Table of predicted SNOs for the next 14.0 days since TLE Epoch: 9/18/2021
Index Date (AQUA) Time (AQUA) Lat,Lon (AQUA) SZA (AQUA ) Date (METOP-B) Time (METOP-B) Lat,Lon (METOP-B) SZA (METOP-B ) Distance(km) Time Diff (sec)
1 09/18/2021 02:13:23 73.30, 141.94 71.41 09/18/2021 02:12:14 73.24, 140.04 71.40 61.08 69
2 09/18/2021 03:02:58 -73.78, -51.43 108.08 09/18/2021 03:02:45 -73.77, -51.40 108.09 1.23 13
3 09/18/2021 03:52:26 73.82, 116.11 71.98 09/18/2021 03:53:24 73.81, 116.03 71.97 2.55 58
4 09/20/2021 21:47:43 73.49,-152.02 72.69 09/20/2021 21:46:32 73.45,-153.07 72.68 33.73 71
5 09/20/2021 22:37:15 -73.80, 14.95 106.97 09/20/2021 22:37:07 -73.79, 15.05 106.98 3.59 8
6 09/20/2021 23:26:43 73.85,-177.52 73.10 09/20/2021 23:27:46 73.82,-177.53 73.07 2.79 63
7 09/23/2021 17:22:02 73.69, -86.00 73.99 09/23/2021 17:20:49 73.65, -86.19 73.97 6.66 73
8 09/23/2021 18:11:30 -73.79, 81.42 105.90 09/23/2021 18:11:28 -73.80, 81.49 105.88 3.11 2
9 09/23/2021 19:00:58 73.84,-111.06 74.17 09/23/2021 19:02:07 73.83,-111.10 74.17 1.58 69
10 09/26/2021 12:56:19 73.73, -19.67 75.13 09/26/2021 12:55:10 73.71, -19.64 75.11 2.80 69
11 09/26/2021 13:45:46 -73.78, 147.87 104.81 09/26/2021 13:45:51 -73.77, 147.81 104.82 2.19 5
12 09/26/2021 14:35:15 73.88, -44.73 75.31 09/26/2021 14:36:28 73.89, -44.56 75.31 5.19 73
13 09/29/2021 08:30:35 73.74, 46.75 76.23 09/29/2021 08:29:32 73.71, 46.78 76.21 2.92 63
14 09/29/2021 09:20:02 -73.78,-145.70 103.72 09/29/2021 09:20:13 -73.78,-145.75 103.72 1.70 11



Historial Predications of SNOs between AQUA and METOP-B
